Weather History for Columbia Airport, CA

Change the Weather History Date:

Friday, September 13, 2013

  Actual Average (KMOD) Record (KMOD)
Temperature  
Mean Temperature 73 °F -  
Max Temperature 89 °F 90 °F 102 °F (1971)
Min Temperature 57 °F 60 °F 44 °F (1936)
Degree Days  
Heating Degree Days 0 0  
Month to date heating degree days 0  
Since 1 July heating degree days 0  
Cooling Degree Days 8 10  
Month to date cooling degree days 138  
Year to date cooling degree days 1474  
Growing Degree Days 23 (Base 50)    
Moisture  
Dew Point 50 °F    
Average Humidity 48    
Maximum Humidity 72    
Minimum Humidity 22    
Precipitation  
Precipitation 0.00 in 0.00 in 0.00 in (2014)
Month to date precipitation 0.05  
Year to date precipitation 8.82  
Since 1 July precipitation 0.07  
Snow  
Snow 0.00 in - - ()
Month to date snowfall  
Since 1 July snowfall  
Since 1 September snowfall  
Snow Depth -    
Sea Level Pressure  
Sea Level Pressure 29.87 in    
Wind  
Wind Speed 1 mph (WSW)    
Max Wind Speed 9 mph    
Max Gust Speed -    
Visibility 10 miles    
Events      
T = Trace of Precipitation, MM = Missing Value Source: NWS Daily Summary

Daily Weather History Graph

Daily Weather History Graph

Search for Another Location

Airport:

Trip Planner

Search our weather history database for the weather conditions in past years. The results will help you decide how hot, cold, wet, or windy it might be!

Date:

Astronomy

Sep. 13, 2013 Rise Set
Actual Time 6:42 AM PDT 7:12 PM PDT
Civil Twilight 6:15 AM PDT 7:38 PM PDT
Nautical Twilight 5:44 AM PDT 8:09 PM PDT
Astronomical Twilight 5:12 AM PDT 8:41 PM PDT
Moon 3:02 PM PDT (9/13) 12:20 AM PDT (9/13)
Length of Visible Light 13h 23m
Length of Day
12h 30m
Waxing Gibbous, 62% of the Moon is Illuminated
Sep 13
Waxing Gibbous
Sep 19
Full
Sep 26
Last Quarter
Oct 4
New
Oct 11
First Quarter

Hourly Weather History & Observations

Time (PDT) Temp. Heat Index Dew Point Humidity Pressure Visibility Wind Dir Wind Speed Gust Speed Precip Events Conditions
12:15 AM 62.6 °F - 48.2 °F 59% 29.94 in 10.0 mi Calm Calm - N/A   Clear
12:35 AM 62.6 °F - 48.2 °F 59% 29.93 in 10.0 mi Calm Calm - N/A   Clear
12:55 AM 62.6 °F - 50.0 °F 63% 29.93 in 10.0 mi Calm Calm - N/A   Clear
1:15 AM 60.8 °F - 50.0 °F 68% 29.93 in 10.0 mi Calm Calm - N/A   Clear
1:35 AM 60.8 °F - 50.0 °F 68% 29.93 in 10.0 mi Calm Calm - N/A   Clear
1:55 AM 60.8 °F - 50.0 °F 68% 29.93 in 10.0 mi Calm Calm - N/A   Clear
2:15 AM 60.8 °F - 50.0 °F 68% 29.93 in 10.0 mi Calm Calm - N/A   Clear
2:35 AM 59.0 °F - 50.0 °F 72% 29.92 in 10.0 mi Calm Calm - N/A   Clear
2:55 AM 59.0 °F - 48.2 °F 67% 29.92 in 10.0 mi Calm Calm - N/A   Clear
3:15 AM 60.8 °F - 48.2 °F 63% 29.91 in 10.0 mi Calm Calm - N/A   Clear
3:35 AM 59.0 °F - 48.2 °F 67% 29.91 in 10.0 mi Calm Calm - N/A   Clear
3:55 AM 59.0 °F - 48.2 °F 67% 29.91 in 10.0 mi Calm Calm - N/A   Clear
4:15 AM 59.0 °F - 48.2 °F 67% 29.91 in 10.0 mi Calm Calm - N/A   Clear
4:35 AM 59.0 °F - 48.2 °F 67% 29.90 in 10.0 mi Calm Calm - N/A   Clear
4:55 AM 59.0 °F - 48.2 °F 67% 29.91 in 10.0 mi Calm Calm - N/A   Clear
5:15 AM 57.2 °F - 48.2 °F 72% 29.91 in 10.0 mi Calm Calm - N/A   Clear
5:35 AM 57.2 °F - 48.2 °F 72% 29.90 in 10.0 mi Calm Calm - N/A   Clear
5:55 AM 59.0 °F - 48.2 °F 67% 29.90 in 10.0 mi Calm Calm - N/A   Clear
6:15 AM 59.0 °F - 48.2 °F 67% 29.91 in 10.0 mi Calm Calm - N/A   Clear
6:35 AM 57.2 °F - 48.2 °F 72% 29.91 in 10.0 mi Calm Calm - N/A   Clear
6:55 AM 57.2 °F - 48.2 °F 72% 29.91 in 10.0 mi Calm Calm - N/A   Clear
7:15 AM 59.0 °F - 48.2 °F 67% 29.91 in 10.0 mi Calm Calm - N/A   Clear
7:35 AM 59.0 °F - 50.0 °F 72% 29.91 in 10.0 mi Calm Calm - N/A   Clear
7:55 AM 62.6 °F - 50.0 °F 63% 29.91 in 10.0 mi Calm Calm - N/A   Clear
8:15 AM 66.2 °F - 50.0 °F 56% 29.91 in 10.0 mi Calm Calm - N/A   Clear
8:35 AM 71.6 °F - 50.0 °F 46% 29.91 in 10.0 mi Calm Calm - N/A   Clear
8:55 AM 75.2 °F - 50.0 °F 41% 29.91 in 10.0 mi Calm Calm - N/A   Clear
9:15 AM 77.0 °F - 48.2 °F 36% 29.91 in 6.0 mi South 3.5 mph - N/A   Clear
9:35 AM 77.0 °F - 48.2 °F 36% 29.91 in 7.0 mi South 3.5 mph - N/A   Clear
9:55 AM 78.8 °F - 48.2 °F 34% 29.91 in 10.0 mi South 4.6 mph - N/A   Clear
10:15 AM 80.6 °F - 48.2 °F 32% 29.91 in 10.0 mi South 3.5 mph - N/A   Clear
10:35 AM 80.6 °F - 48.2 °F 32% 29.91 in 8.0 mi South 4.6 mph - N/A   Clear
10:55 AM 82.4 °F - 48.2 °F 30% 29.91 in 10.0 mi Calm Calm - N/A   Clear
11:15 AM 82.4 °F - 48.2 °F 30% 29.90 in 9.0 mi Calm Calm - N/A   Clear
11:35 AM 84.2 °F - 48.2 °F 29% 29.90 in 10.0 mi WSW 4.6 mph - N/A   Clear
11:55 AM 84.2 °F - 48.2 °F 29% 29.89 in 10.0 mi West 5.8 mph - N/A   Clear
12:15 PM 84.2 °F - 46.4 °F 27% 29.89 in 10.0 mi WSW 3.5 mph - N/A   Clear
12:35 PM 84.2 °F - 48.2 °F 29% 29.88 in 10.0 mi SW 3.5 mph - N/A   Clear
12:55 PM 86.0 °F - 48.2 °F 27% 29.87 in 10.0 mi Calm Calm - N/A   Clear
1:15 PM 86.0 °F - 50.0 °F 29% 29.86 in 10.0 mi West 4.6 mph - N/A   Clear
1:35 PM 86.0 °F - 50.0 °F 29% 29.86 in 10.0 mi SW 3.5 mph - N/A   Clear
1:55 PM 86.0 °F - 50.0 °F 29% 29.85 in 10.0 mi WSW 4.6 mph - N/A   Clear
2:15 PM 87.8 °F - 50.0 °F 27% 29.85 in 10.0 mi SW 5.8 mph - N/A   Clear
2:35 PM 89.6 °F - 50.0 °F 26% 29.84 in 10.0 mi SW 5.8 mph - N/A   Clear
2:55 PM 89.6 °F - 50.0 °F 26% 29.83 in 10.0 mi SE 3.5 mph - N/A   Clear
3:15 PM 89.6 °F - 50.0 °F 26% 29.83 in 10.0 mi SW 5.8 mph - N/A   Clear
3:35 PM 89.6 °F - 48.2 °F 24% 29.82 in 10.0 mi West 6.9 mph - N/A   Clear
3:55 PM 89.6 °F - 46.4 °F 22% 29.82 in 10.0 mi WNW 9.2 mph - N/A   Clear
4:15 PM 89.6 °F - 48.2 °F 24% 29.81 in 10.0 mi West 9.2 mph - N/A   Clear
4:35 PM 89.6 °F - 48.2 °F 24% 29.81 in 10.0 mi West 8.1 mph - N/A   Clear
4:55 PM 89.6 °F - 50.0 °F 26% 29.80 in 10.0 mi West 8.1 mph - N/A   Clear
5:15 PM 87.8 °F - 50.0 °F 27% 29.80 in 10.0 mi West 9.2 mph - N/A   Clear
5:35 PM 86.0 °F - 50.0 °F 29% 29.80 in 10.0 mi West 8.1 mph - N/A   Clear
5:55 PM 84.2 °F - 51.8 °F 33% 29.80 in 10.0 mi WNW 6.9 mph - N/A   Clear
6:15 PM 84.2 °F - 51.8 °F 33% 29.79 in 10.0 mi West 4.6 mph - N/A   Clear
6:35 PM 82.4 °F 81.4 °F 53.6 °F 37% 29.79 in 10.0 mi NW 3.5 mph - N/A   Clear
6:55 PM 80.6 °F 80.3 °F 53.6 °F 39% 29.80 in 10.0 mi West 4.6 mph - N/A   Clear
7:15 PM 78.8 °F - 53.6 °F 42% 29.80 in 10.0 mi Calm Calm - N/A   Clear
7:35 PM 77.0 °F - 53.6 °F 44% 29.80 in 10.0 mi NNW 3.5 mph - N/A   Clear
7:55 PM 75.2 °F - 53.6 °F 47% 29.80 in 10.0 mi NW 3.5 mph - N/A   Clear
8:15 PM 75.2 °F - 53.6 °F 47% 29.80 in 10.0 mi WNW 3.5 mph - N/A   Clear
8:35 PM 73.4 °F - 53.6 °F 50% 29.81 in 10.0 mi Calm Calm - N/A   Clear
8:55 PM 71.6 °F - 53.6 °F 53% 29.81 in 10.0 mi NE 3.5 mph - N/A   Clear
9:15 PM 69.8 °F - 53.6 °F 56% 29.81 in 10.0 mi Calm Calm - N/A   Clear
9:35 PM 69.8 °F - 53.6 °F 56% 29.81 in 10.0 mi Calm Calm - N/A   Clear
9:55 PM 68.0 °F - 53.6 °F 60% 29.81 in 10.0 mi Calm Calm - N/A   Clear
10:15 PM 68.0 °F - 53.6 °F 60% 29.82 in 10.0 mi Calm Calm - N/A   Clear
10:35 PM 66.2 °F - 53.6 °F 64% 29.82 in 10.0 mi Calm Calm - N/A   Clear
10:55 PM 66.2 °F - 53.6 °F 64% 29.82 in 10.0 mi NE 3.5 mph - N/A   Clear
11:15 PM 64.4 °F - 53.6 °F 68% 29.82 in 10.0 mi Calm Calm - N/A   Clear
11:35 PM 64.4 °F - 53.6 °F 68% 29.82 in 10.0 mi Calm Calm - N/A   Clear
11:55 PM 64.4 °F - 53.6 °F 68% 29.81 in 10.0 mi NE 3.5 mph - N/A   Clear